Location: ???????
(60.4260°N, 46.9069°E)
Time: 18:47:30
(UTC+00:00)

SKYMED 2 - Pass Details

Date: 30 March 2020
Orbit: 621 x 623 km, 97.9° (Epoch: 06 June)

Event Time Altitude Azimuth Distance (km) Brightness Sun altitude
Rises 01:24:18 0° 155° (SSE) 2,898 7.0 -7.7°
Reaches altitude 10° 01:26:29 10° 154° (SSE) 1,996 6.2 -7.5°
Maximum altitude 01:30:49 75° 69° (ENE) 653 3.9 -7.0°
Drops below altitude 10° 01:35:11 10° 345° (NNW) 2,012 6.3 -6.5°
Sets 01:37:24 0° 344° (NNW) 2,923 7.1 -6.2°
